Location: Arborea
(39.7744°N, 8.5819°E)
Time: 18:53:16
(UTC+00:00)

CZ-2C DEB - Pass Details

Date: 24 August 2022
Orbit: 681 x 927 km, 97.9° (Epoch: 03 October)

Event Time Altitude Azimuth Distance (km) Brightness Sun altitude
Rises 20:32:49 0° 21° (NNE) 3,333 ? -25.1°
Reaches altitude 10° 20:35:17 10° 30° (NNE) 2,436 ? -25.4°
Enters shadow 20:38:20 29° 56° (NE) 1,529 ? -25.9°
